LBSF

Sofia Airport

Airport
ICAO code
LBSF
IATA Code
SOF
Summary
ICAO Region
EUR
ICAO Territory
Location

Sofia, Sofia-Capital

Serving
Sofia
Elevation
1742 ft
Coordinates
42° 41' 44" N , 23° 24' 57" E
KCC
Airport RE
Aquaplaning
Airport WX
Cumulonimbus
Metar
LBSF 210630Z VRB02KT CAVOK 25/17 Q1011 NOSIG

International airport serving the capital of Bulgaria.

Climatology

Humid “subtropical” climate (Köppen climate classification Cfa)

Runways

Designator Length Width Surface Rops
9/27 2800 45 ASP Yes/Yes

Airport map

Aerial View

SKYbrary Partners:

Safety knowledge contributed by: